Location: Chantemerle
(45.7667°N, 2.5833°E)
Time: 01:30:52
(UTC+00:00)

Daily predictions for brighter satellites

Satellite Brightness Start Highest point End
(mag) Time Altitude Azimuth Time Altitude Azimuth Time Altitude Azimuth
Cosmos 1867 3.5 00:05:01 55° SSW 00:06:15 84° ESE 00:11:46 10° NE
Cosmos 1461 2.8 00:02:26 10° NW 00:06:31 80° W 00:06:31 80° W
Cosmos 2221 Rocket 3.4 00:06:47 77° SSW 00:07:04 85° W 00:11:31 10° N
Cosmos 1674 Rocket 3.5 00:06:55 64° ESE 00:07:09 66° E 00:11:26 10° NNE
Cosmos 2298 Rocket 4.4 00:07:41 45° SE 00:08:33 50° ESE 00:13:40 10° NNE
Cosmos 1674 2.8 00:10:51 66° NW 00:10:51 66° NW 00:14:18 10° N
USA 306 4.0 00:11:52 31° E 00:11:52 31° E 00:14:34 10° ENE
Cosmos 1238 Rocket 3.5 00:10:09 10° N 00:12:06 38° NNW 00:12:06 38° NNW
USA 307 4.1 00:15:20 30° E 00:15:20 30° E 00:17:59 10° ENE
ATLAS CENTAUR R/B 2.7 00:10:15 10° NW 00:13:59 33° W 00:13:59 33° W
SL-16 R/B 4.2 00:16:08 13° ESE 00:17:54 15° E 00:20:55 10° ENE
Cosmos 2322 Rocket 4.5 00:17:14 10° W 00:21:06 19° NW 00:24:58 10° N
Cosmos 1980 4.1 00:20:38 43° SSE 00:21:51 50° ESE 00:27:17 10° NE
Cosmos 2333 Rocket 3.2 00:19:42 24° WSW 00:22:33 40° NW 00:27:53 10° NNE
Cosmos 1378 Rocket 3.4 00:22:19 75° S 00:22:42 89° WNW 00:27:10 10° N
ATLAS 5 CENTAUR R/B 2.9 00:10:19 10° NW 00:23:04 85° SW 00:24:40 44° SE
Cosmos 2322 4.3 00:20:47 33° WSW 00:23:08 52° WNW 00:28:45 10° NNE
Cosmos 468 4.4 00:17:58 10° NNW 00:23:14 87° WSW 00:24:27 54° SSE
CZ-4C R/B 3.0 00:16:15 10° NW 00:23:34 72° WSW 00:27:53 32° SSE
Cosmos 1844 Rocket 4.5 00:23:03 10° WNW 00:26:16 16° W 00:26:32 16° WSW
USA 215 4.0 00:21:08 10° NE 00:27:25 51° NNW 00:33:41 10° W
NOSS 0 Rocket 3.9 00:29:22 46° S 00:31:20 75° ESE 00:37:35 10° NNE
PSLV R/B 4.2 00:30:02 10° N 00:34:14 47° WNW 00:35:00 42° WSW
USA 32 4.2 00:35:15 44° SSE 00:36:45 63° E 00:41:57 10° NNE
Meteor 2-10 Rocket 4.1 00:33:09 10° N 00:38:45 56° ENE 00:41:17 31° SE
Cosmos 1975 Rocket 4.1 00:39:39 31° ESE 00:40:40 35° E 00:44:45 10° NNE
Cosmos 2151 Rocket 4.2 00:36:37 10° NNW 00:40:43 39° W 00:40:53 39° W
Cosmos 1745 Rocket 4.0 00:36:20 10° NNW 00:42:32 69° W 00:44:35 43° SSW
ADEOS Rocket 3.9 00:42:18 26° WSW 00:43:22 28° W 00:48:22 10° NW
Cosmos 839 Rocket 4.2 00:37:31 10° NW 00:43:55 89° WSW 00:49:12 21° SSE
USA 308 2.9 00:44:46 61° SE 00:44:46 61° SE 00:48:46 10° ENE
Okean 2 Rocket 4.1 00:40:58 10° NNW 00:44:59 32° W 00:45:13 32° W
Cosmos 2219 Rocket 3.4 00:42:56 21° WSW 00:45:52 34° NW 00:50:58 10° NNE
Cosmos 1025 Rocket 4.2 00:47:03 29° ESE 00:48:09 33° E 00:52:02 10° NNE
Meteor 2-12 Rocket 4.3 00:44:03 10° N 00:50:09 82° W 00:52:26 41° S
GP-B 3.1 00:52:42 10° N 00:57:10 78° E 00:58:07 54° SSE
Meteor 2-5 Rocket 4.4 00:55:38 29° SSE 00:58:11 48° E 01:03:36 10° NNE
Lacrosse 5 2.7 00:58:31 33° SE 00:59:10 34° SE 01:03:45 10° ENE
CZ-2D R/B 3.0 00:55:09 10° NNE 01:00:12 40° E 01:02:28 27° SSE
Cosmos 1300 2.5 00:57:33 10° NNW 01:01:21 74° W 01:01:27 73° WSW
SL-14 R/B 3.5 01:02:27 50° W 01:02:41 51° WNW 01:06:29 10° N
USA 267 3.7 01:02:14 35° SSW 01:03:12 37° SW 01:09:12 10° WNW
Cosmos 371 Rocket 3.6 01:06:03 41° WSW 01:07:28 56° WNW 01:12:16 10° NNE
Cosmos 2150 Rocket 4.3 01:06:08 38° WSW 01:07:52 56° WNW 01:12:57 10° NNE
USA 305 2.8 01:07:08 52° WSW 01:08:05 79° NNW 01:12:16 10° NE
NOSS 2-2 (C) 4.5 01:04:08 10° NW 01:09:19 57° SW 01:12:46 29° S
USA 229 DEB 4.0 01:03:38 10° NW 01:10:52 56° WSW 01:15:06 27° S
USA 229 4.0 01:03:44 10° NW 01:10:57 56° WSW 01:15:14 27° S
Cosmos 2237 Rocket 2.3 01:11:28 38° SW 01:13:43 72° WNW 01:19:26 10° NNE
COSMOS 2428 4.1 01:12:17 17° W 01:15:38 30° NW 01:20:38 10° N
Cosmos 405 Rocket 4.4 01:18:03 21° W 01:18:29 21° WNW 01:21:25 10° NNW
Cosmos 304 Rocket 3.8 01:17:17 44° SW 01:18:44 70° WNW 01:23:35 10° NNE
Cosmos 1437 Rocket 4.2 01:16:38 10° NW 01:19:16 23° W 01:19:16 23° W
SL-16 R/B 2.9 01:14:42 15° SSE 01:19:56 63° ENE 01:26:06 10° N
Lacrosse 5 rocket 2.5 01:21:54 27° SE 01:22:03 27° SE 01:25:27 10° ENE
Cosmos 1125 Rocket 4.3 01:20:00 28° WSW 01:22:05 41° WNW 01:27:02 10° N
Okean 1 Rocket 4.2 01:19:54 10° NNW 01:23:41 28° W 01:24:04 27° W
SME Rocket 3.1 01:24:34 47° SSW 01:25:37 68° WSW 01:30:33 10° NNW
Cosmos 1953 3.8 01:23:15 10° NW 01:26:25 23° W 01:26:25 23° W
Cosmos 2074 Rocket 4.3 01:22:43 10° N 01:29:01 66° E 01:33:59 17° SSE
Resurs 1-4 Rocket 2.2 01:24:12 10° NNE 01:29:29 73° ESE 01:31:56 32° S
Cosmos 2297 4.3 01:27:45 10° NNW 01:33:28 59° ENE 01:39:07 10° SE
Cosmos 1943 Rocket 2.4 01:27:49 10° NNW 01:33:32 74° ENE 01:39:11 10° SSE
MOZ.5/SAFIR/RUBIN 5/SL-8 4.2 01:33:59 37° SW 01:35:07 45° W 01:39:41 10° NNW
Cosmos 1709 Rocket 4.5 01:31:10 10° NNW 01:36:52 42° W 01:39:18 29° SW
Cosmos 2315 Rocket 4.4 01:35:34 29° SW 01:38:34 51° WNW 01:44:48 10° N
Cosmos 2184 Rocket 4.0 01:37:37 10° N 01:43:55 81° E 01:48:45 18° SSE
Cosmos 2278 Rocket 3.2 01:39:41 10° NW 01:44:23 27° WSW 01:45:23 26° WSW
ADEOS II 2.6 01:40:14 10° NNE 01:45:23 54° E 01:48:40 22° S
IDEFIX/ARIANE 42P 3.4 01:41:11 10° NNE 01:46:16 46° E 01:49:52 18° SSE
USA 306 3.7 01:47:33 20° W 01:50:12 47° NNW 01:54:15 10° NE
Cosmos 2084 Rocket 3.2 01:49:15 40° WSW 01:50:29 70° NW 01:54:17 10° NE
Thor Agena Rocket 4.4 01:48:38 10° N 01:53:33 40° WNW 01:56:09 24° WSW
USA 307 3.6 01:51:04 20° W 01:53:39 50° NNW 01:57:45 10° NE
ERBS 3.4 01:54:54 25° WNW 01:56:02 34° NNW 01:58:52 10° NE
NPP 3.6 01:52:05 10° NNE 01:57:30 81° WNW 02:00:36 26° SSW
Cosmos 2369 Rocket 3.2 01:53:17 10° NNW 01:58:43 48° ENE 02:04:05 10° SE
SL-16 R/B 2.2 01:58:00 27° SSW 02:01:12 86° WNW 02:06:55 10° NNE
Cosmos 1455 Rocket 4.0 01:58:04 10° NNW 02:02:01 31° W 02:03:15 27° WSW
CZ-4 R/B 4.0 01:57:52 10° N 02:02:26 56° WNW 02:04:41 28° SW
Cosmos 614 Rocket 4.1 01:57:18 10° NNW 02:02:31 76° ENE 02:07:44 10° SSE
Cosmos 2228 4.1 01:58:29 10° N 02:02:41 44° ENE 02:06:50 10° SSE
EO 1 Del DPAF 3.5 02:00:05 10° NNE 02:03:33 54° E 02:05:17 26° SSE
Cosmos 2251 Rocket 4.4 01:59:20 10° NNW 02:04:28 50° ENE 02:09:35 10° SE
Meteor 1-28 Rocket 3.2 02:03:36 21° SSE 02:06:03 82° ENE 02:09:48 10° N
COSMOS 2455 3.1 02:04:48 22° S 02:08:41 63° ESE 02:14:39 10° NE
Cosmos 1536 Rocket 3.5 02:08:02 25° S 02:10:35 89° ESE 02:15:00 10° N
Iridium 82 4.5 02:09:13 28° S 02:11:02 85° E 02:14:35 10° N
CZ-4C R/B 4.4 02:06:34 10° WNW 02:11:26 18° WSW 02:12:59 17° WSW
Nadezhda 1 Rocket 4.0 02:15:05 18° S 02:20:01 84° W 02:26:21 10° N
Meteor 1-24 Rocket 4.3 02:17:04 22° SW 02:20:18 43° WNW 02:25:31 10° N
UNK 4.1 02:19:09 23° SSW 02:21:43 45° W 02:26:10 10° NNW
MSX 4.0 02:17:38 10° NNE 02:23:25 74° ESE 02:28:25 14° S
USA 308 4.1 02:20:32 10° W 02:24:26 37° NNW 02:28:21 10° NE
MOS 1 Rocket 3.4 02:23:22 22° SSW 02:25:48 45° W 02:29:57 10° NNW
Cosmos 1025 Rocket 4.5 02:23:55 18° WSW 02:25:48 23° WNW 02:29:18 10° NNW
Cosmos 1455 2.8 02:22:26 10° NNW 02:25:52 36° W 02:27:23 25° SW
Cosmos 1271 Rocket 2.7 02:25:58 10° NNW 02:29:46 66° W 02:32:44 16° S
Cosmos 1606 Rocket 4.0 02:29:30 10° N 02:33:55 63° E 02:38:15 10° SSE
ALOS 4.2 02:33:40 10° NE 02:37:33 25° E 02:41:24 10° SSE
CZ-2C R/B 4.3 02:35:20 10° NE 02:39:43 28° E 02:43:59 10° SSE
CZ-2D R/B 3.2 02:35:25 10° N 02:40:06 31° WNW 02:43:47 15° WSW
Lacrosse 5 2.4 02:37:42 14° WSW 02:41:59 55° NNW 02:47:01 10° NE
Helios 1B rocket 3.4 02:40:36 10° NNE 02:44:30 43° E 02:48:22 10° S
Cosmos 2341 Rocket 4.2 02:40:19 10° N 02:46:45 84° E 02:53:09 10° S
Cosmos 2154 Rocket 4.4 02:44:05 10° NNW 02:50:04 46° W 02:56:01 10° SSW
BREEZE-M DEB (TANK) 3.4 02:47:13 15° SW 02:50:45 39° SSE 02:53:08 10° E
Meteor 2-1 Rocket 4.3 02:45:29 10° N 02:51:18 90° E 02:56:56 10° S
Cosmos 407 Rocket 3.8 02:47:07 10° NNW 02:52:28 72° ENE 02:57:43 10° SSE
SL-8 Rocket 4.2 02:47:08 10° N 02:53:29 79° E 02:59:49 10° SSE
Cosmos 1943 3.4 02:50:42 11° SSW 02:56:12 72° ESE 03:01:53 10° NNE
Cosmos 1328 3.8 02:52:19 10° S 02:56:16 81° E 03:00:16 10° N
Helios 1A 3.8 02:53:26 14° SSW 02:56:30 31° W 03:00:18 10° NNW
Cosmos 2237 Rocket 4.3 02:55:28 10° WNW 02:58:51 16° NW 03:02:16 10° N
Genesis I 3.8 02:55:48 10° NNW 02:59:51 64° NE 03:03:49 10° SE
Lacrosse 5 rocket 1.9 02:57:25 12° WSW 03:00:54 48° NNW 03:04:55 10° NE
Cosmos 1140 Rocket 3.5 02:58:08 10° NNW 03:03:26 88° WSW 03:08:40 10° SSE
SL-16 R/B 3.7 02:59:47 12° SW 03:03:58 24° W 03:08:52 10° NW
Lacrosse 4 Rocket 3.8 03:05:37 10° SSE 03:08:35 18° ESE 03:11:31 10° ENE
Resurs 1-4 Rocket 3.9 03:05:14 10° NNW 03:08:43 18° WNW 03:12:13 10° W
SeaSat 1 4.2 03:05:23 10° NE 03:09:36 28° ESE 03:13:48 10° SSE
Cosmos 1892 Rocket 3.6 03:05:35 10° S 03:10:02 89° ESE 03:14:33 10° N
Cosmos 1726 Rocket 3.6 03:09:06 10° NNW 03:13:30 65° W 03:17:49 10° S
Cosmos 1703 4.5 03:11:07 12° SW 03:14:13 27° WNW 03:17:39 10° NNW
Cosmos 1943 Rocket 3.6 03:12:56 10° WNW 03:16:36 18° W 03:20:16 10° SW
FENGYUN 3A 3.9 03:12:14 10° NNE 03:17:38 74° ESE 03:23:01 10° S
Cosmos 2263 4.3 03:12:11 10° NNW 03:17:46 61° WSW 03:23:23 10° S
NOSS 3-3 (A) 3.9 03:13:36 10° SW 03:19:15 85° NW 03:25:49 10° NE
NOSS 3-3 (C) 3.9 03:13:42 10° SW 03:19:21 86° NW 03:25:54 10° NE
ADEOS II 3.5 03:20:37 10° N 03:24:43 23° WNW 03:28:47 10° WSW
Cosmos 1825 3.8 03:21:31 10° SSE 03:24:53 34° E 03:28:17 10° NNE
IDEFIX/ARIANE 42P 3.8 03:21:14 10° N 03:25:36 27° WNW 03:29:58 10° WSW
SL-24 DEB 4.3 03:21:40 10° S 03:26:22 67° W 03:31:05 10° N
ARIANE 5 R/B 3.0 03:22:51 10° NNE 03:27:54 62° ESE 03:32:50 10° S
Cosmos 1624 Rocket 4.3 03:23:18 10° SSW 03:28:36 76° ESE 03:33:55 10° NNE
CBERS-1 4.3 03:25:45 10° N 03:30:46 57° WNW 03:35:46 10° SSW
Cosmos 2218 Rocket 4.1 03:29:08 10° NNW 03:35:15 62° W 03:41:27 10° S
MOS 1-B Rocket 4.1 03:32:05 10° S 03:37:30 49° W 03:43:05 10° NNW
DEBRIS 3.2 03:33:59 10° WNW 03:42:05 83° SSW 03:44:54 10° ESE
